RH
11 11 10 10 9 9 10 10 10 10 9 9 8 7 7 7 7 7 6 6 6 6 6 5 5 5 5 4 4 4 3 3 3 3 3 4 4 4 7 14 16 17 20 23 26 29 28 27 25 24 23 23 25 26 27 31 36 41 45 45 44 44 41 39 39 38 39 38 40 44 45 49 49 51 59 66 71 72 73 72 72 73 75 76 72 68 66 65
11 12 11 11 10 9 9 9 10 10 10 9 8 7 7 7 7 7 6 6 6 6 6 5 5 4 4 4 4 4 4 4 3 5 5 6 6 4 8 13 15 17 19 22 26 27 26 25 23 23 22 23 24 24 26 29 33 39 42 41 42 43 38 36 37 35 35 35 40 42 41 44 45 47 52 60 68 71 74 73 71 73 74 76 75 70 66 66
10 11 12 12 11 10 9 9 9 10 10 9 8 7 7 7 7 7 6 6 6 6 6 5 5 4 4 4 4 4 5 6 6 7 7 7 6 5 7 11 15 17 19 21 23 25 25 23 22 23 22 21 21 22 26 27 32 37 37 38 41 40 36 34 32 31 31 33 39 41 39 40 40 42 45 53 63 67 71 73 72 73 72 75 77 70 65 67
9 10 11 11 12 11 10 9 9 9 9 9 9 8 7 7 7 6 6 6 5 6 5 5 4 4 3 4 4 5 7 8 8 8 7 7 6 5 6 11 15 16 18 20 22 23 24 23 23 22 21 21 20 21 24 26 30 33 33 36 38 37 35 32 31 30 30 32 36 39 39 38 37 40 42 47 56 62 67 68 69 72 72 73 73 68 66 67
9 9 10 10 11 11 11 10 9 9 9 9 9 8 7 7 7 7 6 6 6 6 5 5 4 3 4 4 5 6 9 11 10 9 7 7 6 5 6 10 14 15 17 19 21 21 22 23 23 22 21 21 21 20 22 24 26 29 31 33 34 35 35 34 33 32 32 34 36 38 40 38 38 40 41 44 51 55 57 61 66 70 72 72 71 70 69 67
9 9 9 9 10 11 11 12 11 10 9 9 9 9 8 7 7 6 6 6 7 6 5 4 3 4 4 5 5 7 10 13 12 10 8 7 6 5 5 9 13 14 15 18 20 20 21 23 23 24 23 23 23 21 22 23 22 26 29 30 31 33 34 35 36 35 34 35 38 39 38 36 40 42 40 41 45 46 48 53 61 67 69 70 72 73 69 67
11 10 9 9 9 10 11 11 12 11 10 9 9 9 8 7 7 6 6 7 7 5 5 3 3 4 4 5 6 8 10 13 12 10 9 8 7 6 4 8 11 13 14 17 19 19 20 22 24 25 24 23 22 21 22 22 21 25 29 31 32 32 34 36 37 37 36 36 38 38 36 36 40 43 42 43 42 42 45 48 55 63 66 68 71 72 69 67
14 12 10 9 8 9 10 11 11 11 10 9 9 8 8 8 7 6 8 7 6 5 4 3 4 4 4 6 7 8 11 13 12 11 10 9 8 6 4 7 9 11 14 17 19 19 20 21 22 24 23 22 21 21 22 20 22 25 27 32 35 34 34 36 38 38 37 37 38 38 39 37 37 41 43 45 43 42 44 47 51 59 64 68 70 72 71 70
13 13 12 11 9 9 9 9 10 11 11 9 8 8 8 7 6 7 8 7 5 4 4 4 4 4 5 6 7 10 13 14 13 12 10 8 9 7 4 6 8 10 13 16 18 20 20 20 21 22 22 21 19 19 19 18 20 22 23 29 34 35 34 36 39 41 39 38 38 40 41 39 38 41 41 41 41 43 46 47 50 55 61 67 69 71 72 71
13 12 13 12 11 10 9 8 9 10 10 9 9 8 8 7 6 8 8 6 5 5 5 5 5 5 6 6 8 12 14 13 12 12 10 8 8 7 5 5 7 10 12 15 18 20 20 20 21 20 20 20 18 17 16 16 18 17 20 28 34 36 36 38 41 42 42 39 38 41 42 41 40 41 40 37 38 44 47 49 51 54 58 64 68 71 72 72
13 11 12 12 12 11 9 8 8 9 9 9 9 8 8 7 6 7 7 5 5 5 5 6 5 5 6 7 10 13 13 13 12 11 10 7 7 7 5 5 7 9 12 14 17 18 18 19 20 18 18 18 16 16 15 16 17 17 22 28 32 36 38 40 42 43 44 40 38 40 40 40 41 42 39 36 37 41 46 51 55 57 57 60 65 69 71 73
13 11 11 11 12 11 10 9 8 8 9 9 8 8 7 6 6 8 6 5 5 5 5 6 6 6 6 8 11 12 12 13 13 12 10 7 7 6 4 5 7 9 11 14 16 17 18 19 19 18 17 17 17 17 16 17 17 18 23 28 33 38 39 39 40 41 42 39 38 38 38 39 43 42 36 34 36 39 43 48 55 58 58 58 61 65 69 71
12 11 11 11 12 12 11 9 8 8 8 8 8 8 7 6 7 8 6 5 6 6 6 6 6 6 7 9 10 10 11 12 11 12 10 6 6 6 4 5 7 9 11 13 14 16 17 18 17 17 17 16 17 17 17 17 18 19 22 28 34 35 37 38 36 37 39 39 38 37 36 39 43 41 35 35 36 37 43 47 52 58 60 60 60 62 64 66
11 11 11 11 11 11 11 9 8 7 7 9 9 8 7 6 7 8 7 6 6 6 6 6 6 6 8 10 10 10 10 10 10 11 10 7 5 5 4 4 6 8 10 11 13 14 15 17 16 15 15 16 16 16 17 18 18 18 19 27 32 31 35 36 33 34 36 38 38 36 37 36 39 39 36 37 36 36 42 46 51 56 59 60 62 63 63 63
12 11 11 11 11 11 12 10 8 8 8 8 9 8 7 6 6 8 8 7 6 6 6 6 6 7 9 10 10 11 10 11 11 10 10 9 6 5 5 5 5 7 9 11 12 14 15 15 16 14 14 16 16 17 19 19 20 20 19 24 27 28 35 33 30 33 33 38 39 36 39 37 35 38 36 38 40 38 39 43 48 53 55 57 62 65 63 61
11 11 11 10 10 11 12 11 9 8 7 8 8 8 7 6 6 7 8 8 7 7 6 6 7 7 9 10 11 12 11 12 11 10 9 8 7 7 7 7 7 7 9 11 12 13 13 14 15 14 14 15 17 19 19 20 22 23 20 20 22 26 31 28 27 32 31 37 41 37 39 37 33 35 37 40 42 41 40 41 45 49 51 53 58 62 61 59
10 9 10 10 10 11 12 11 10 9 8 9 8 7 7 6 6 6 8 8 8 8 7 7 6 7 9 10 12 13 12 11 10 10 9 8 8 8 8 7 7 7 9 10 11 12 12 13 13 13 14 15 17 18 18 21 22 22 20 19 22 24 25 23 25 31 31 35 40 41 41 36 33 34 37 41 43 44 44 42 42 45 48 49 52 54 55 56
10 9 9 9 9 11 12 12 11 10 9 9 9 7 6 6 6 6 7 7 8 9 8 8 7 8 10 11 12 13 12 11 10 10 9 7 8 8 8 8 7 8 8 9 11 11 11 12 12 13 14 15 16 18 19 22 20 19 19 19 22 24 22 22 24 28 31 32 37 42 42 38 36 36 36 39 43 46 47 46 43 43 46 49 49 49 51 52
10 10 10 9 9 10 11 11 11 11 10 11 9 7 7 7 7 7 7 7 8 8 8 8 7 9 11 11 11 12 11 12 11 10 9 8 8 8 9 8 7 8 7 8 9 10 11 11 12 13 13 13 15 18 20 21 20 19 19 18 21 21 20 21 24 28 29 30 36 41 41 38 35 36 37 37 43 47 49 50 45 43 46 49 50 50 51 50
11 11 10 10 9 10 11 11 11 11 11 11 10 7 8 9 10 10 9 8 8 8 7 8 7 9 11 11 11 11 12 12 11 11 10 9 9 8 8 8 8 7 7 8 8 8 9 10 12 12 11 12 15 17 18 18 19 17 17 20 21 20 19 18 21 27 28 28 34 38 39 38 35 35 36 36 42 48 51 53 50 47 48 50 51 51 50 50
11 10 10 10 10 10 11 11 11 12 13 12 10 8 8 9 10 10 9 8 8 8 7 8 8 10 11 12 11 11 12 12 11 11 10 10 10 9 9 8 8 8 8 7 7 7 8 9 10 10 10 12 13 15 16 17 16 16 18 20 20 19 19 17 18 25 29 27 32 37 37 36 33 33 36 39 44 47 49 52 52 51 52 53 52 51 50 50
12 10 10 10 10 11 11 11 13 14 14 13 10 9 10 9 9 8 8 8 8 8 7 7 8 10 11 11 11 11 12 12 11 11 11 10 10 10 9 8 8 9 8 6 7 8 8 9 9 9 10 12 13 14 15 16 15 16 19 19 19 18 17 19 22 27 29 27 30 37 36 33 33 35 38 41 44 45 47 49 50 51 52 54 54 53 51 51
12 11 11 10 10 11 11 12 13 15 15 14 13 12 11 10 8 7 8 8 8 7 6 7 8 9 12 11 10 12 13 13 13 12 11 11 11 10 9 8 8 8 7 7 8 9 9 9 9 10 10 11 12 14 15 16 15 16 19 19 18 17 16 18 23 28 28 27 30 35 34 34 35 36 39 41 42 44 45 47 48 48 50 51 51 53 53 53
11 11 11 11 11 11 12 13 13 15 16 16 15 14 13 11 9 8 8 9 9 7 6 7 8 10 11 11 11 13 14 13 13 13 12 12 10 9 8 8 8 8 7 8 8 9 9 10 10 10 11 12 12 14 15 15 15 17 18 18 16 16 16 17 21 27 27 27 32 34 33 34 34 34 37 41 43 44 46 46 45 46 47 48 49 51 53 53
11 11 11 11 12 13 13 13 14 16 16 16 16 14 13 11 9 8 8 9 10 8 7 7 8 9 10 11 12 13 13 13 13 12 12 13 11 9 8 7 8 7 8 9 9 10 10 11 11 11 13 13 13 14 15 14 15 16 15 16 16 15 16 17 23 28 29 30 32 32 30 33 36 36 38 43 45 46 47 47 46 45 46 47 48 49 51 52
11 11 12 12 12 14 14 15 16 16 16 16 15 14 13 11 10 9 10 13 12 9 8 7 9 10 10 11 13 13 14 14 13 13 13 13 11 10 9 8 8 7 9 10 11 11 11 12 12 13 13 14 15 14 14 14 15 16 16 15 16 15 16 21 27 28 31 33 32 31 30 31 36 38 42 46 48 48 48 48 47 46 45 46 46 48 49 51
13 13 13 14 15 15 17 18 17 17 17 17 15 14 13 10 9 8 11 18 16 10 10 9 10 12 12 12 12 14 16 15 14 14 13 13 12 11 10 10 9 8 9 11 12 13 13 12 13 14 14 14 15 15 15 15 15 17 16 15 16 16 16 24 27 28 32 32 31 35 34 33 36 38 43 48 47 47 48 47 47 47 46 46 47 47 49 50
14 13 13 15 16 17 19 21 20 19 20 20 17 16 13 9 10 12 17 21 17 12 12 12 12 13 14 14 13 15 16 15 14 14 13 13 13 12 11 12 10 10 11 11 13 14 13 13 14 14 15 14 14 15 16 15 14 16 16 16 17 17 20 25 25 28 33 29 30 37 35 35 40 40 45 46 44 46 46 45 47 47 47 47 47 48 49 50
13 12 11 12 15 17 18 21 22 21 23 23 20 19 15 11 12 17 22 22 16 15 15 14 15 15 15 16 15 14 14 15 16 15 14 14 14 12 12 12 11 12 11 11 13 14 13 13 14 14 14 15 15 15 15 15 15 15 16 19 20 21 25 27 26 29 33 31 33 37 35 35 40 42 44 45 44 45 45 45 47 46 46 46 47 49 49 50
12 11 10 11 13 15 16 19 20 20 23 24 23 21 16 13 18 23 24 22 19 19 18 16 17 16 16 18 17 15 15 17 16 15 15 15 14 13 13 12 12 13 13 13 13 14 13 13 15 15 14 15 15 15 16 15 16 15 17 19 21 24 27 30 33 32 31 35 35 35 36 35 37 42 45 44 44 46 43 45 47 47 45 44 45 47 49 51
13 12 11 12 14 15 16 18 19 19 22 23 23 22 16 16 25 28 24 21 21 22 21 19 19 18 18 18 17 16 17 17 16 17 17 16 14 14 14 14 13 15 16 15 13 14 14 14 17 16 16 16 15 15 16 16 16 16 18 20 20 24 26 30 36 32 31 37 37 36 38 35 36 41 44 43 45 46 45 46 47 47 46 43 43 45 46 49
14 13 13 15 15 15 17 18 19 19 21 22 21 20 18 18 24 27 23 20 22 24 23 22 22 21 20 19 18 18 18 18 17 18 18 17 16 15 15 16 15 15 17 17 14 14 16 17 18 18 18 19 17 18 18 17 18 17 19 22 21 23 24 28 35 34 33 36 35 36 37 35 37 38 38 41 41 42 45 45 45 45 43 41 41 42 44 46
15 15 16 16 16 16 16 17 17 19 21 22 19 19 24 26 25 26 25 24 24 25 24 23 24 24 23 21 19 19 19 19 19 20 19 19 19 17 16 17 16 14 16 17 15 16 19 19 20 20 21 21 19 20 20 19 19 18 20 22 22 24 24 29 39 35 31 33 34 37 37 36 37 35 36 40 39 39 40 40 40 39 40 42 43 42 43 44
16 16 17 16 16 16 16 16 15 18 22 21 19 20 25 28 27 27 27 25 25 24 24 24 24 24 23 22 21 19 18 19 20 20 20 21 21 22 20 18 17 16 16 17 17 19 21 21 21 21 21 21 20 20 21 21 20 20 22 21 21 26 24 27 35 31 29 35 37 37 36 35 35 33 36 39 38 39 39 37 37 38 40 43 43 43 43 42
16 17 16 17 17 16 17 16 14 18 22 20 23 26 26 28 29 27 26 25 24 24 24 24 25 24 23 21 20 19 18 19 20 21 22 22 22 23 23 20 18 18 18 18 20 20 20 22 23 22 21 21 21 21 20 21 20 19 21 19 19 24 24 26 30 31 33 36 37 36 34 36 35 33 38 41 40 41 41 39 40 40 42 43 42 42 41 41
17 17 17 18 17 16 16 16 16 20 21 22 26 26 26 29 29 27 27 24 23 23 24 24 25 25 24 22 21 20 18 19 21 22 23 23 23 24 24 22 20 19 17 20 23 21 19 21 22 22 22 22 21 21 20 19 19 20 20 19 20 22 25 28 29 33 35 33 35 36 34 36 36 33 38 42 39 40 42 42 42 42 43 42 41 40 39 41
19 19 19 19 18 17 16 16 18 20 20 23 25 23 27 31 29 28 29 25 23 23 23 24 24 24 24 22 22 21 20 20 21 23 23 24 25 25 25 23 22 23 21 21 23 22 20 22 22 22 22 22 21 21 20 18 20 21 20 21 21 21 24 27 28 35 36 34 38 38 36 40 38 34 37 40 38 40 43 44 43 41 41 39 39 38 38 40
21 20 20 19 18 17 16 17 19 19 19 25 29 31 33 32 29 29 28 25 25 23 23 24 23 24 24 23 23 23 21 21 22 24 24 25 27 26 26 25 23 25 23 21 22 23 22 22 24 24 22 23 22 20 20 20 20 21 21 21 21 21 24 24 28 34 33 37 44 43 39 42 39 36 36 36 38 40 40 43 42 41 40 39 38 38 38 38
23 21 20 20 18 17 17 17 18 19 22 27 32 35 34 32 30 29 27 26 26 24 23 24 23 23 24 24 24 24 23 22 23 24 24 25 27 26 28 28 25 25 24 20 21 24 23 24 25 25 22 23 23 22 21 22 21 21 21 21 21 24 25 24 26 30 30 39 49 44 40 40 38 38 37 34 38 40 39 41 40 40 39 36 36 37 38 37
24 22 23 21 20 19 19 20 20 23 26 28 31 33 31 31 31 29 27 28 27 25 24 24 24 25 25 24 25 25 25 24 23 23 23 24 25 26 28 28 28 29 26 22 22 23 24 24 25 26 24 23 25 24 23 23 22 22 22 22 23 24 25 24 25 28 31 42 51 45 41 39 36 37 37 33 36 39 39 39 39 40 37 33 33 34 36 36
23 24 25 23 22 23 22 23 26 28 30 30 31 31 29 30 31 29 29 28 26 26 25 25 25 25 24 24 24 25 26 25 24 23 24 24 25 28 30 29 30 31 27 24 24 23 23 24 25 26 24 24 25 24 24 23 22 23 23 24 25 25 25 27 29 30 32 38 45 42 38 36 36 38 38 34 36 39 38 38 39 40 36 33 33 33 34 34
25 28 28 26 26 25 24 27 29 30 31 30 29 29 28 29 31 29 29 28 27 27 27 28 27 27 28 26 25 27 27 27 27 25 26 28 28 30 32 30 31 32 29 28 27 25 25 24 24 25 25 24 24 24 26 25 24 25 25 25 27 26 28 30 30 31 33 35 39 39 36 34 37 41 41 39 38 38 37 37 38 38 36 34 34 34 33 33
28 29 29 28 28 27 28 32 33 32 32 30 27 28 28 29 30 30 29 30 29 29 30 31 30 30 32 30 29 32 30 28 30 30 30 33 33 31 32 32 31 33 34 33 30 27 26 24 23 27 30 30 27 26 28 27 26 27 26 26 27 27 28 31 31 33 35 36 38 37 35 35 38 42 44 43 41 39 37 37 38 38 36 34 34 35 33 32
28 27 28 29 29 27 29 33 33 34 35 32 29 28 27 28 29 30 31 31 31 31 32 33 33 34 35 35 35 36 33 30 32 33 34 35 34 33 33 32 32 34 35 35 34 30 27 28 27 25 28 30 27 27 29 29 27 28 29 27 28 29 30 30 33 35 34 36 37 36 35 36 37 41 43 41 40 41 39 37 37 38 35 34 35 36 34 33
28 27 26 27 27 26 28 31 32 34 37 35 31 28 28 29 30 30 31 32 31 31 33 33 33 34 36 39 39 39 38 36 34 36 37 36 35 34 33 33 33 35 34 35 36 32 28 32 31 27 27 28 28 30 32 30 27 28 29 28 27 30 30 30 33 35 34 35 37 36 36 36 35 37 39 39 39 38 37 37 38 38 36 35 36 36 35 35
27 29 28 27 26 26 28 29 30 32 36 36 33 30 30 30 30 29 30 32 31 31 32 32 32 34 37 39 40 40 41 41 40 39 39 39 37 36 34 34 34 34 35 34 35 34 34 36 36 34 32 30 30 34 34 31 27 26 27 27 28 29 30 32 34 33 35 37 37 40 39 33 32 33 35 38 39 37 37 37 38 38 38 39 38 36 35 36
26 30 30 30 28 29 30 29 30 33 34 33 32 30 29 30 30 30 30 31 33 33 33 33 33 35 37 38 39 39 40 43 43 41 41 40 39 38 36 34 34 34 35 34 33 36 38 35 34 35 33 30 32 34 33 29 27 27 27 27 28 29 30 33 33 32 35 36 35 41 43 34 30 32 34 37 39 39 39 38 36 38 40 41 40 38 36 37
24 26 29 30 31 34 34 33 33 35 33 33 32 30 30 31 31 30 30 30 32 34 34 35 34 34 35 36 38 39 39 42 43 43 44 42 40 40 37 36 37 36 36 36 35 37 39 37 35 33 32 31 32 33 32 29 28 28 28 28 29 29 30 31 33 33 34 35 34 40 43 36 30 31 33 36 37 38 38 36 35 37 40 42 43 41 38 37
21 24 26 27 30 32 34 32 31 32 33 35 36 33 32 33 31 29 28 29 32 34 34 36 35 34 35 35 38 40 39 39 40 42 43 42 42 42 39 39 40 38 37 39 39 39 40 41 39 35 34 33 33 34 33 30 29 29 28 29 29 29 29 29 31 33 33 34 37 39 39 35 31 31 33 34 35 37 36 35 35 36 39 42 43 43 40 38
20 22 24 25 28 29 28 28 29 31 32 34 35 31 29 31 30 28 26 28 32 34 34 37 37 35 35 36 38 39 37 36 38 39 38 38 42 43 41 41 41 38 38 40 41 42 41 43 45 42 39 38 37 36 35 33 33 31 29 32 30 28 29 29 29 32 32 32 36 37 36 35 34 36 37 34 34 37 37 36 35 36 39 42 43 43 41 38
18 19 21 26 30 30 28 27 28 32 34 34 34 31 29 31 31 29 27 26 28 30 32 35 36 36 36 35 35 35 34 34 36 36 36 36 37 39 40 41 41 40 41 41 42 44 42 44 49 46 43 43 40 38 37 36 35 33 32 35 33 30 30 29 29 31 30 29 33 34 33 34 36 39 39 35 33 35 36 36 35 36 40 42 42 42 41 38
18 17 18 23 26 27 30 31 29 31 32 32 32 31 30 31 30 30 30 29 28 28 29 31 31 32 33 32 31 30 30 29 30 30 32 33 34 34 35 37 39 40 42 42 43 45 44 44 47 47 45 46 46 42 41 39 37 37 36 35 34 32 32 30 30 32 31 31 32 31 30 33 35 36 35 33 33 34 35 35 34 36 39 40 40 41 40 37